[[{"header":{"parameterUnit":"m.s-1","parameterCategory":1,"la1":30.2991,"la2":30.254,"lo1":-89.0895,"lo2":-89.0444,"dy":0.0017,"dx":0.0017,"nx":28,"ny":28,"refTime":"2024-12-11T03:00:00:Z","depth":0,"parameterNumber":2,"parameterNumberName":"U-component_of_WINDS"},"data":[0,0,0,0,0,0,0,0,0,0,0,0,0,0,0,0,0,0,0,0,0,0,0,0,0,0,0,0,0,0,0,0,0,0,0,0,0,0,0,0,0,0,0,0,0,0,0,0,0,0,0,0,0,0,0,0,0,0,4.9374,4.9375,0,4.9492,4.9494,4.9495,4.9467,4.9464,4.9462,4.946,4.9581,4.9586,4.9591,0,0,0,0,0,0,0,0,0,0,0,0,0,4.9124,4.9128,4.9374,4.9375,4.9377,4.9492,4.9494,4.9496,4.9467,4.9464,4.9462,4.9459,4.9579,4.9585,4.9592,0,0,0,0,0,0,0,0,0,0,0,0,0,4.9236,4.913,4.9373,4.9377,4.9378,4.9492,4.9494,4.9496,4.9468,4.9464,4.9461,4.9458,4.9577,4.9585,4.9592,4.971,0,0,4.9617,4.962,0,0,0,0,0,0,0,0,4.923,4.9245,4.9375,4.9377,4.9378,4.9461,4.945,4.9568,4.9469,4.9434,4.946,4.9456,4.9544,4.9554,4.9584,4.9716,4.9721,4.9618,4.9623,4.9626,4.9628,0,0,0,0,0,0,0,4.9222,4.924,4.9421,4.9377,4.9379,4.9372,4.9385,4.9472,4.9506,4.9436,4.9435,4.9449,4.9544,4.9576,4.9587,4.9723,4.9617,4.9625,4.963,4.9633,4.9961,4.9965,0,0,0,0,0,0,4.9213,4.9234,4.9417,4.9424,4.9294,4.938,4.9393,4.9438,4.9505,4.9512,4.9452,4.9447,4.9564,4.9577,4.9591,4.9735,4.9626,4.9633,4.9638,4.9957,4.9962,4.9966,0,0,0,0,0,0,4.9207,4.9229,4.9412,4.9329,4.9351,4.9388,4.9438,4.9442,4.9474,4.9517,4.9523,4.9479,4.9562,4.9579,4.9682,4.9739,4.9637,4.9644,4.9952,4.9958,4.9964,5.0023,0,0,0,0,0,0,4.92,4.9228,4.9272,4.933,4.9356,4.9501,4.9442,4.9447,4.9489,4.9484,4.9544,4.955,4.9561,4.967,4.969,4.9748,4.9651,4.9947,4.9955,4.9962,5.0016,5.0031,5.0043,0,0,0,0,0,4.9192,4.9284,4.9275,4.9297,4.9413,4.9504,4.9519,4.9529,4.9493,4.9539,4.9567,4.9548,4.9729,4.9681,4.9702,4.9764,4.9944,4.9953,4.9961,5.0011,5.0028,5.0042,0,0,0,0,0,0,4.9231,4.9291,4.9282,4.9395,4.9445,4.9499,4.9557,4.9547,4.9608,4.96,4.9611,4.9624,4.9729,4.9757,4.9701,4.9883,4.9831,4.9845,4.9861,4.9878,4.9891,4.9882,4.9657,0,0,0,0,0,4.9253,4.9322,4.9371,4.9466,4.9492,4.952,4.956,4.9565,4.9616,4.9637,4.9672,4.9723,4.9791,4.9836,4.9901,5.0021,5.0034,5.0074,5.0087,5.0098,5.0109,5.0177,5.0195,4.9995,4.9995,4.9995,0,0,4.9298,4.934,4.9383,4.9475,4.9514,4.9586,4.9538,4.9615,4.9669,4.9648,4.9748,4.9776,4.9833,4.9945,4.9996,4.9971,5.0168,5.0109,5.0117,5.0123,5.0188,5.0207,5.0223,5.0001,5.0,4.9999,0,0,4.9419,4.9457,4.9541,4.9582,4.9642,4.9661,4.9682,4.9738,4.9756,4.9856,4.9843,4.9907,5.0024,5.0067,5.0103,5.0243,5.0229,5.0264,5.0332,5.0398,5.0414,5.0428,5.0479,5.0497,5.0276,5.0276,5.0276,0,4.9468,4.9576,4.9586,4.9666,4.9708,4.9693,4.978,4.9819,4.9897,4.9926,4.9898,5.0047,5.0084,5.0207,5.0241,5.0271,5.0296,5.0257,5.0411,5.0425,5.0438,5.0487,5.0507,5.028,5.0279,5.0279,5.0279,0,4.9634,4.9709,4.9771,4.9848,4.9897,4.9979,5.0003,5.0051,5.0052,5.0074,5.0177,5.0222,5.0297,5.0327,5.0327,5.0451,5.0434,5.0408,5.0356,5.0461,5.0508,5.0526,5.0286,5.0284,5.0283,5.0282,0,0,4.9781,4.9865,4.9887,4.9923,4.999,5.0048,5.0131,5.0206,5.0248,5.0303,5.0373,5.0475,5.0452,5.0494,5.05,5.0557,5.0667,5.0525,5.0526,5.0551,5.0808,5.0827,5.0849,5.0659,5.0662,5.0665,5.0804,0,4.9908,5.0054,5.0067,5.0199,5.027,5.0259,5.0331,5.0381,5.0404,5.0468,5.0494,5.0566,5.053,5.0556,5.0612,5.0642,5.0719,5.0632,5.0725,5.0729,5.0712,5.0873,5.0893,5.1022,5.0822,5.0825,5.0827,0,5.0075,5.0137,5.0276,5.0336,5.0366,5.0431,5.0501,5.0562,5.0619,5.0632,5.0681,5.0679,5.0766,5.0711,5.0831,5.0772,5.0811,5.0832,5.0837,5.0846,5.0784,5.0888,5.1062,5.1082,5.0855,5.0853,5.0851,0,5.017,5.0288,5.0387,5.0418,5.0489,5.0536,5.0567,5.062,5.0665,5.0727,5.0757,5.0827,5.0866,5.0922,5.094,5.0898,5.1061,5.1007,5.1075,5.1075,5.1109,5.1107,5.1294,5.1134,5.1133,5.1133,5.1132,0,5.0311,5.0397,5.0431,5.0492,5.0589,5.0603,5.0699,5.0728,5.0776,5.0843,5.0838,5.0901,5.0921,5.0988,5.1003,5.1101,5.1119,5.1133,5.1136,5.1134,5.1132,5.1159,5.1151,5.1138,5.1137,5.1136,5.1135,0,5.0433,5.0459,5.0567,5.0626,5.0643,5.0712,5.0763,5.0823,5.0846,5.0931,5.0952,5.0989,5.1068,5.1092,5.1187,5.1197,5.1313,5.1307,5.1294,5.1294,5.1361,5.1355,5.1573,5.1603,5.1422,5.1424,5.1425,0,5.0522,5.0588,5.0655,5.07,5.0734,5.0806,5.0853,5.087,5.0919,5.099,5.1041,5.112,5.1183,5.131,5.1346,5.1419,5.1416,5.1487,5.1426,5.1423,5.1418,5.1414,5.1422,5.1498,5.15,5.1502,5.1503,0,5.0677,5.0687,5.0754,5.0827,5.0882,5.094,5.0996,5.1033,5.1059,5.1114,5.1195,5.1245,5.1343,5.1421,5.1496,5.1529,5.1522,5.1522,5.1542,5.154,5.1531,5.1538,5.1326,5.1517,5.1515,5.1514,5.1514,5.1513,5.0785,5.0845,5.0902,5.0978,5.1022,5.1074,5.1134,5.1166,5.1234,5.1315,5.1322,5.141,5.1467,5.1567,5.1605,5.1674,5.1654,5.1682,5.1689,5.1696,5.1703,5.1519,5.1688,5.1688,5.1687,5.1687,5.1687,0,5.0941,5.0978,5.1047,5.1126,5.1187,5.1174,5.1236,5.1287,5.1365,5.1419,5.1483,5.1577,5.1654,5.1697,5.1773,5.1821,5.182,5.1841,5.1838,5.1846,5.1716,5.1692,5.1841,5.1841,5.1841,5.1841,5.1841,5.1841,5.1029,5.1129,5.1147,5.127,5.1306,5.1393,5.143,5.1479,5.1522,5.1628,5.1692,5.172,5.177,5.1851,5.1921,5.1932,5.1961,5.1985,5.1993,5.1871,5.1855,5.184,5.1817,5.1991,5.1991,5.2118,5.2119,5.212]},{"header":{"parameterUnit":"m.s-1","parameterCategory":1,"la1":30.2991,"la2":30.254,"lo1":-89.0895,"lo2":-89.0444,"dy":0.0017,"dx":0.0017,"nx":28,"ny":28,"refTime":"2024-12-11T03:00:00:Z","depth":0,"parameterNumber":3,"parameterNumberName":"V-component_of_WINDS"},"data":[0,0,0,0,0,0,0,0,0,0,0,0,0,0,0,0,0,0,0,0,0,0,0,0,0,0,0,0,0,0,0,0,0,0,0,0,0,0,0,0,0,0,0,0,0,0,0,0,0,0,0,0,0,0,0,0,0,0,-8.0258,-8.026,0,-8.0445,-8.0447,-8.0449,-8.0406,-8.0403,-8.0399,-8.0396,-8.0584,-8.0592,-8.06,0,0,0,0,0,0,0,0,0,0,0,0,0,-7.9862,-7.9869,-8.0258,-8.026,-8.0263,-8.0445,-8.0447,-8.045,-8.0407,-8.0402,-8.0398,-8.0394,-8.0581,-8.0591,-8.0601,0,0,0,0,0,0,0,0,0,0,0,0,0,-8.004,-7.9872,-8.0257,-8.0263,-8.0265,-8.0444,-8.0447,-8.0451,-8.0408,-8.0402,-8.0397,-8.0392,-8.0578,-8.059,-8.0603,-8.0787,0,0,-8.0641,-8.0646,0,0,0,0,0,0,0,0,-8.003,-8.0054,-8.026,-8.0263,-8.0266,-8.0397,-8.0377,-8.0563,-8.0409,-8.0354,-8.0396,-8.0389,-8.0526,-8.0542,-8.0589,-8.0795,-8.0803,-8.0642,-8.065,-8.0655,-8.0658,0,0,0,0,0,0,0,-8.0018,-8.0046,-8.0332,-8.0263,-8.0267,-8.0256,-8.0275,-8.0412,-8.0467,-8.0358,-8.0355,-8.0378,-8.0526,-8.0577,-8.0593,-8.0806,-8.0642,-8.0653,-8.066,-8.0665,-8.1175,-8.1181,0,0,0,0,0,0,-8.0003,-8.0036,-8.0326,-8.0337,-8.0132,-8.0267,-8.0289,-8.036,-8.0466,-8.0477,-8.0383,-8.0375,-8.0558,-8.0579,-8.06,-8.0824,-8.0655,-8.0666,-8.0674,-8.1169,-8.1177,-8.1183,0,0,0,0,0,0,-7.9995,-8.0029,-8.0318,-8.0186,-8.0222,-8.028,-8.036,-8.0367,-8.0417,-8.0484,-8.0494,-8.0424,-8.0555,-8.0582,-8.0741,-8.083,-8.0672,-8.0683,-8.1162,-8.1171,-8.118,-8.1273,0,0,0,0,0,0,-7.9983,-8.0026,-8.0097,-8.0188,-8.023,-8.0458,-8.0366,-8.0374,-8.0439,-8.0432,-8.0526,-8.0536,-8.0553,-8.0723,-8.0754,-8.0844,-8.0693,-8.1154,-8.1166,-8.1177,-8.1262,-8.1284,-8.1302,0,0,0,0,0,-7.9969,-8.0115,-8.0101,-8.0136,-8.0319,-8.0463,-8.0486,-8.0503,-8.0447,-8.0518,-8.0562,-8.0533,-8.0815,-8.0739,-8.0774,-8.0869,-8.1149,-8.1163,-8.1176,-8.1253,-8.1279,-8.1302,0,0,0,0,0,0,-8.0031,-8.0126,-8.0112,-8.0291,-8.037,-8.0455,-8.0546,-8.053,-8.0625,-8.0614,-8.063,-8.0652,-8.0815,-8.0857,-8.0772,-8.1054,-8.0974,-8.0995,-8.102,-8.1046,-8.1066,-8.1053,-8.0704,0,0,0,0,0,-8.0065,-8.0175,-8.0252,-8.0402,-8.0442,-8.0488,-8.0551,-8.0557,-8.0638,-8.0671,-8.0726,-8.0805,-8.0911,-8.0981,-8.1082,-8.1268,-8.1288,-8.135,-8.1371,-8.1387,-8.1405,-8.1509,-8.1538,-8.1228,-8.1228,-8.1227,0,0,-8.0137,-8.0203,-8.0271,-8.0416,-8.0478,-8.0591,-8.0516,-8.0637,-8.0721,-8.0689,-8.0843,-8.0887,-8.0976,-8.115,-8.1229,-8.1191,-8.1496,-8.1404,-8.1417,-8.1427,-8.1526,-8.1555,-8.1581,-8.1237,-8.1235,-8.1234,0,0,-8.0327,-8.0387,-8.052,-8.0584,-8.0678,-8.0708,-8.074,-8.0829,-8.0857,-8.1012,-8.0991,-8.1091,-8.1273,-8.1339,-8.1396,-8.1613,-8.1591,-8.1645,-8.1751,-8.1852,-8.1876,-8.1898,-8.1977,-8.2005,-8.1663,-8.1663,-8.1663,0,-8.0404,-8.0574,-8.059,-8.0716,-8.0781,-8.0758,-8.0894,-8.0954,-8.1076,-8.1122,-8.1077,-8.1308,-8.1366,-8.1556,-8.161,-8.1656,-8.1694,-8.1635,-8.1871,-8.1893,-8.1914,-8.199,-8.2019,-8.1669,-8.1668,-8.1668,-8.1667,0,-8.0666,-8.0784,-8.088,-8.1001,-8.1077,-8.1206,-8.1242,-8.1317,-8.1318,-8.1352,-8.1512,-8.1581,-8.1697,-8.1743,-8.1743,-8.1934,-8.1907,-8.1867,-8.1787,-8.1949,-8.2021,-8.205,-8.1678,-8.1676,-8.1674,-8.1672,0,0,-8.0898,-8.1028,-8.1063,-8.1119,-8.1222,-8.1314,-8.1443,-8.1558,-8.1623,-8.1708,-8.1817,-8.1974,-8.1938,-8.2003,-8.2011,-8.2099,-8.2269,-8.2048,-8.2051,-8.2088,-8.2485,-8.2516,-8.2549,-8.2255,-8.226,-8.2265,-8.2478,0,-8.1098,-8.1327,-8.1346,-8.1552,-8.1662,-8.1643,-8.1756,-8.1831,-8.1867,-8.1966,-8.2004,-8.2116,-8.2059,-8.2099,-8.2185,-8.223,-8.2349,-8.2215,-8.2357,-8.2362,-8.2337,-8.2586,-8.2619,-8.2816,-8.2506,-8.2511,-8.2514,0,-8.1362,-8.1458,-8.1675,-8.1765,-8.1812,-8.1913,-8.2022,-8.2116,-8.2202,-8.2221,-8.2296,-8.2292,-8.2425,-8.234,-8.2524,-8.2432,-8.2491,-8.2522,-8.253,-8.2545,-8.2449,-8.2609,-8.288,-8.291,-8.2558,-8.2554,-8.2551,0,-8.1512,-8.1695,-8.1849,-8.1897,-8.2006,-8.2077,-8.2126,-8.2207,-8.2275,-8.237,-8.2415,-8.2523,-8.2583,-8.2666,-8.2692,-8.2627,-8.2876,-8.2792,-8.2897,-8.2897,-8.2951,-8.2947,-8.3237,-8.2987,-8.2987,-8.2986,-8.2986,0,-8.1734,-8.1868,-8.1919,-8.2013,-8.2163,-8.2184,-8.2332,-8.2376,-8.2449,-8.2552,-8.2542,-8.2639,-8.2667,-8.2769,-8.279,-8.294,-8.2966,-8.2987,-8.2991,-8.2989,-8.2987,-8.3029,-8.3016,-8.2994,-8.2992,-8.2991,-8.2989,0,-8.1928,-8.1966,-8.2134,-8.2224,-8.225,-8.2356,-8.2433,-8.2525,-8.2559,-8.2691,-8.2723,-8.2777,-8.2897,-8.2931,-8.3075,-8.3089,-8.3266,-8.3257,-8.3238,-8.3238,-8.3342,-8.3332,-8.3669,-8.3715,-8.3434,-8.3437,-8.3439,0,-8.2067,-8.2171,-8.2273,-8.2342,-8.2394,-8.2505,-8.2576,-8.2601,-8.2675,-8.2782,-8.2862,-8.298,-8.3077,-8.327,-8.3321,-8.3432,-8.3426,-8.3536,-8.3442,-8.3438,-8.343,-8.3424,-8.3435,-8.3554,-8.3557,-8.356,-8.3562,0,-8.2312,-8.2327,-8.243,-8.2542,-8.2627,-8.2715,-8.28,-8.2857,-8.2894,-8.2978,-8.3102,-8.3177,-8.3325,-8.3443,-8.3556,-8.3605,-8.3591,-8.3591,-8.3622,-8.3621,-8.3606,-8.3618,-8.3288,-8.3583,-8.3581,-8.358,-8.3578,-8.3578,-8.2485,-8.2576,-8.2663,-8.2779,-8.2846,-8.2926,-8.3018,-8.3065,-8.3168,-8.3292,-8.33,-8.3434,-8.3519,-8.3669,-8.3724,-8.3829,-8.3797,-8.384,-8.3852,-8.3862,-8.3872,-8.3589,-8.385,-8.3849,-8.3848,-8.3848,-8.3848,0,-8.273,-8.2786,-8.2892,-8.3013,-8.3104,-8.3084,-8.3177,-8.3255,-8.3374,-8.3455,-8.3551,-8.3694,-8.3809,-8.3871,-8.3986,-8.4059,-8.4055,-8.4088,-8.4084,-8.4096,-8.3894,-8.3857,-8.409,-8.409,-8.409,-8.4089,-8.4089,-8.4089,-8.2869,-8.3024,-8.305,-8.3238,-8.3292,-8.3425,-8.348,-8.3554,-8.3619,-8.378,-8.3877,-8.3917,-8.3991,-8.4111,-8.4217,-8.4232,-8.4275,-8.4313,-8.4325,-8.4135,-8.411,-8.4086,-8.4052,-8.4322,-8.4322,-8.4518,-8.452,-8.4521]}]]